Weather History for Tillamook, OR

Change the Weather History Date:

Tuesday, May 6, 2014

  Actual Average (KMMV) Record (KMMV)
Temperature  
Mean Temperature 50 °F 54 °F  
Max Temperature 59 °F 66 °F 91 °F (1987)
Min Temperature 42 °F 42 °F 26 °F (1965)
Degree Days  
Heating Degree Days 14 11  
Month to date heating degree days 71  
Since 1 July heating degree days 4469  
Cooling Degree Days 0 0  
Month to date cooling degree days 0  
Year to date cooling degree days 0  
Moisture  
Dew Point 44 °F    
Average Humidity 73    
Maximum Humidity 100    
Minimum Humidity 48    
Precipitation  
Precipitation 0.00 in 0.08 in 1.20 in (1963)
Month to date precipitation 0.42  
Year to date precipitation 17.90  
Sea Level Pressure  
Sea Level Pressure 30.10 in    
Wind  
Wind Speed 3 mph (WSW)    
Max Wind Speed 14 mph    
Max Gust Speed 20 mph    
Visibility 10 miles    
Events Fog    
T = Trace of Precipitation, MM = Missing Value Source: NWS Daily Summary

Daily Weather History Graph

Daily Weather History Graph

Search for Another Location

Airport:

Trip Planner

Search our weather history database for the weather conditions in past years. The results will help you decide how hot, cold, wet, or windy it might be!

Date:

Astronomy

May. 06, 2014 Rise Set
Actual Time 6:56 AM MDT 9:28 PM MDT
Civil Twilight 6:22 AM MDT 10:01 PM MDT
Nautical Twilight 5:41 AM MDT 10:43 PM MDT
Astronomical Twilight 4:53 AM MDT 11:31 PM MDT
Moon 1:21 PM MDT (5/6) 2:47 AM MDT (5/6)
Length of Visible Light 15h 38m
Length of Day
14h 32m
Waxing Crescent, 46% of the Moon is Illuminated
May 6
Waxing Crescent
May 6
First Quarter
May 14
Full
May 21
Last Quarter
May 28
New

Hourly Weather History & Observations

Time (MDT) Temp. Windchill Dew Point Humidity Pressure Visibility Wind Dir Wind Speed Gust Speed Precip Events Conditions
12:15 AM 51.8 °F - 50.0 °F 94% 30.12 in 10.0 mi Calm Calm - N/A   Overcast
12:35 AM 50.0 °F - 50.0 °F 100% 30.12 in 10.0 mi Calm Calm - N/A   Scattered Clouds
12:55 AM 50.0 °F - 48.2 °F 94% 30.12 in 10.0 mi SW 3.5 mph - N/A   Clear
1:15 AM 48.2 °F - 48.2 °F 100% 30.12 in 10.0 mi Calm Calm - N/A   Scattered Clouds
5:55 AM 46.4 °F 45.2 °F 46.4 °F 100% 30.11 in 10.0 mi SE 3.5 mph - N/A   Mostly Cloudy
6:15 AM 46.4 °F - 46.4 °F 100% 30.11 in 10.0 mi Calm Calm - N/A   Mostly Cloudy
6:35 AM 46.4 °F - 44.6 °F 93% 30.11 in 10.0 mi Calm Calm - N/A   Scattered Clouds
6:55 AM 44.6 °F - 44.6 °F 100% 30.11 in 10.0 mi Calm Calm - N/A   Clear
7:15 AM 44.6 °F - 42.8 °F 93% 30.11 in 0.5 mi Calm Calm - N/A Fog Fog
7:55 AM 42.8 °F - 42.8 °F 100% 30.11 in 7.0 mi Calm Calm - N/A   Scattered Clouds
8:15 AM 44.6 °F - 42.8 °F 93% 30.11 in 10.0 mi Calm Calm - N/A   Clear
8:35 AM 44.6 °F - 44.6 °F 100% 30.11 in 10.0 mi Calm Calm - N/A   Clear
8:55 AM 46.4 °F - 46.4 °F 100% 30.12 in 10.0 mi Calm Calm - N/A   Clear
9:15 AM 48.2 °F - 46.4 °F 93% 30.12 in 10.0 mi Calm Calm - N/A   Clear
9:35 AM 50.0 °F - 50.0 °F 100% 30.11 in 10.0 mi Calm Calm - N/A   Scattered Clouds
9:55 AM 51.8 °F - 50.0 °F 94% 30.11 in 10.0 mi Calm Calm - N/A   Scattered Clouds
10:15 AM 53.6 °F - 48.2 °F 82% 30.12 in 10.0 mi Calm Calm - N/A   Clear
10:35 AM 53.6 °F - 46.4 °F 77% 30.12 in 10.0 mi Calm Calm - N/A   Clear
10:55 AM 55.4 °F - 44.6 °F 67% 30.11 in 7.0 mi Calm Calm - N/A   Clear
11:15 AM 55.4 °F - 42.8 °F 63% 30.11 in 10.0 mi West 5.8 mph - N/A   Mostly Cloudy
11:35 AM 55.4 °F - 44.6 °F 67% 30.12 in 10.0 mi WSW 5.8 mph - N/A   Mostly Cloudy
11:55 AM 57.2 °F - 44.6 °F 63% 30.12 in 10.0 mi West 5.8 mph - N/A   Scattered Clouds
12:15 PM 57.2 °F - 42.8 °F 59% 30.12 in 10.0 mi West 5.8 mph - N/A   Scattered Clouds
12:35 PM 57.2 °F - 42.8 °F 59% 30.12 in 10.0 mi West 6.9 mph - N/A   Mostly Cloudy
12:55 PM 57.2 °F - 44.6 °F 63% 30.12 in 10.0 mi WSW 8.1 mph - N/A   Mostly Cloudy
1:15 PM 59.0 °F - 44.6 °F 59% 30.12 in 10.0 mi WNW 6.9 mph - N/A   Scattered Clouds
1:35 PM 59.0 °F - 46.4 °F 63% 30.11 in 10.0 mi West 9.2 mph - N/A   Mostly Cloudy
2:15 PM 59.0 °F - 44.6 °F 59% 30.12 in 10.0 mi WSW 10.4 mph - N/A   Scattered Clouds
2:35 PM 59.0 °F - 44.6 °F 59% 30.11 in 10.0 mi WSW 9.2 mph - N/A   Scattered Clouds
2:55 PM 59.0 °F - 42.8 °F 55% 30.11 in 10.0 mi WSW 11.5 mph - N/A   Mostly Cloudy
3:15 PM 59.0 °F - 42.8 °F 55% 30.11 in 10.0 mi WSW 13.8 mph 19.6 mph N/A   Mostly Cloudy
3:35 PM 59.0 °F - 42.8 °F 55% 30.11 in 10.0 mi WSW 11.5 mph 17.3 mph N/A   Mostly Cloudy
3:55 PM 59.0 °F - 42.8 °F 55% 30.11 in 10.0 mi WSW 9.2 mph - N/A   Scattered Clouds
4:15 PM 59.0 °F - 42.8 °F 55% 30.11 in 10.0 mi WNW 8.1 mph - N/A   Scattered Clouds
4:35 PM 59.0 °F - 42.8 °F 55% 30.11 in 10.0 mi West 8.1 mph 17.3 mph N/A   Mostly Cloudy
4:55 PM 59.0 °F - 42.8 °F 55% 30.10 in 10.0 mi West 10.4 mph - N/A   Overcast
5:15 PM 59.0 °F - 39.2 °F 48% 30.10 in 10.0 mi NW 9.2 mph - N/A   Scattered Clouds
5:35 PM 59.0 °F - 41.0 °F 51% 30.10 in 10.0 mi WNW 6.9 mph 17.3 mph N/A   Scattered Clouds
5:55 PM 59.0 °F - 42.8 °F 55% 30.09 in 10.0 mi SW 8.1 mph - N/A   Mostly Cloudy
6:15 PM 59.0 °F - 39.2 °F 48% 30.09 in 10.0 mi SW 9.2 mph - N/A   Mostly Cloudy
6:35 PM 57.2 °F - 39.2 °F 51% 30.09 in 10.0 mi WSW 9.2 mph - N/A   Scattered Clouds
6:55 PM 55.4 °F - 37.4 °F 51% 30.08 in 10.0 mi WSW 9.2 mph - N/A   Clear
7:15 PM 55.4 °F - 37.4 °F 51% 30.08 in 10.0 mi WSW 8.1 mph - N/A   Clear
7:35 PM 55.4 °F - 39.2 °F 54% 30.08 in 10.0 mi WSW 8.1 mph - N/A   Clear
7:55 PM 55.4 °F - 42.8 °F 63% 30.08 in 10.0 mi WSW 6.9 mph - N/A   Clear
8:15 PM 55.4 °F - 41.0 °F 58% 30.08 in 10.0 mi West 6.9 mph - N/A   Clear
8:35 PM 53.6 °F - 42.8 °F 67% 30.08 in 10.0 mi West 5.8 mph - N/A   Clear
8:55 PM 53.6 °F - 42.8 °F 67% 30.08 in 10.0 mi WSW 5.8 mph - N/A   Clear
9:15 PM 51.8 °F - 42.8 °F 71% 30.08 in 10.0 mi WSW 3.5 mph - N/A   Scattered Clouds
9:55 PM 50.0 °F - 42.8 °F 76% 30.08 in 10.0 mi Calm Calm - N/A   Scattered Clouds
10:15 PM 50.0 °F - 42.8 °F 76% 30.08 in 10.0 mi Calm Calm - N/A   Scattered Clouds
10:35 PM 48.2 °F - 42.8 °F 82% 30.09 in 10.0 mi Calm Calm - N/A   Clear
10:55 PM 46.4 °F - 42.8 °F 87% 30.09 in 10.0 mi Calm Calm - N/A   Scattered Clouds
11:15 PM 46.4 °F - 42.8 °F 87% 30.10 in 10.0 mi Calm Calm - N/A   Scattered Clouds
11:35 PM 46.4 °F - 42.8 °F 87% 30.10 in 10.0 mi Calm Calm - N/A   Scattered Clouds
11:55 PM 46.4 °F 45.2 °F 42.8 °F 87% 30.09 in 10.0 mi ESE 3.5 mph - N/A   Scattered Clouds